Home   Weather   Oviedo   Past weeks

Flag for Spain Past Weather in Oviedo, Spain — Yesterday and Last 2 Weeks

Now
42 °F

Overcast.


Feels Like: 39 °F
Forecast: 36 / 49 °F
Wind: 5 mph from Northeast

Location: Oviedo

Current Time: Apr 26, 2017 at 12:03:02 pm

Latest Report: Apr 26, 2017 at 11:00 am


Visibility: 13 mi

Pressure: 30.06 "Hg

Humidity: 94%

Dew Point: 40 °F

Location of OviedoLocation

Past Weather in Oviedo — Graph

°F

Oviedo Temperature Yesterday

Maximum temperature yesterday: 57 °F (at 12:00 am)
Minimum temperature yesterday: 45 °F (at 11:00 pm)
Average temperature yesterday: 51 °F

High & Low Weather Summary for the Past Weeks

 TemperatureHumidityPressure
High72 °F (Apr 22, 2:00 pm)100% (Apr 14, 4:00 am)30.34 "Hg (Apr 14, 4:00 am)
Low40 °F (Apr 21, 7:00 am)37% (Apr 22, 6:00 pm)29.86 "Hg (Apr 25, 5:00 am)
Average55 °F80%30.14 "Hg
* Reported Apr 11 10:00 am — Apr 26 10:00 am, Oviedo, Weather by CustomWeather, © 2017

Note: Actual official high and low records may vary slightly from our data, if they occured in-between our weather recording intervals... More about our weather records

Advertising

Oviedo Weather History for the Previous 24 Hours

Scroll right to see more
 ConditionsComfort  
Time TempWeatherWind HumidityBarometerVisibility
10:00 am
Wed, Apr 26
40 °FLight rain. Cloudy.2 mph99%30.05 "Hg11 mi
9:00 am41 °FQuite cool.2 mph100%30.03 "Hg11 mi
8:00 am40 °FLight rain. Overcast.3 mph100%30.03 "Hg1 mi
7:00 am40 °FRain. Overcast.3 mph100%30.02 "Hg0 mi
6:00 am41 °FRain. Overcast.6 mph100%30.02 "Hg2 mi
5:00 am41 °FLight rain. Overcast.3 mph100%30.01 "Hg2 mi
4:00 am42 °FLight rain. Overcast.2 mph100%30.02 "Hg9 mi
3:00 am42 °FRain. Overcast.3 mph99%30.03 "Hg2 mi
2:00 am43 °FLight rain. Overcast.3 mph98%30.03 "Hg2 mi
1:00 am43 °FLight freezing rain. Overcast.6 mph95%30.03 "Hg6 mi
12:00 am44 °FRain. Overcast.13 mph98%30.01 "Hg2 mi
11:00 pm
Tue, Apr 25
45 °FLight rain. Overcast.13 mph100%29.98 "Hg1 mi
10:00 pm47 °FRain. Overcast.5 mph100%29.94 "Hg0 mi
9:00 pm47 °FRain. Cloudy.3 mph100%29.92 "Hg1 mi
8:00 pm47 °FFog.5 mph100%29.92 "Hg1 mi
7:00 pm47 °FRain. Cloudy.3 mph99%29.91 "Hg1 mi
6:00 pm48 °FLight rain. Cloudy.3 mph98%29.90 "Hg3 mi
5:00 pm49 °FDrizzle. Overcast.7 mph95%29.89 "Hg6 mi
4:00 pm53 °FCool.2 mph93%29.87 "Hg6 mi
3:00 pm52 °FDrizzle. Cloudy.3 mph97%29.87 "Hg2 mi
2:00 pm52 °FDrizzle. Overcast.2 mph94%29.88 "Hg3 mi
1:00 pm51 °FDrizzle. Cloudy.3 mph97%29.88 "Hg4 mi
12:00 pm52 °FDrizzle. Cloudy.3 mph100%29.87 "Hg2 mi
Weather by CustomWeather, © 2017

See weather overviewHow to use our weather pages